| time (UTC) | temp F | wind direction | speed MPH | gust MPH | rain 1hr in | rain 24hr in | rain mn in | humidity % | barometer mb |
| 20260510213518 | 64 | 26 | 1.0 | 5.0 | 0.00 | 0.05 | 0.05 | 49 | 1016.1 |
| 20260510212538 | 64 | 96 | 1.0 | 3.0 | 0.00 | 0.05 | 0.05 | 48 | 1016.2 |
| 20260510211519 | 64 | 81 | 2.0 | 6.0 | 0.00 | 0.05 | 0.05 | 50 | 1016.0 |
| 20260510210519 | 64 | 79 | 2.0 | 5.0 | 0.00 | 0.05 | 0.05 | 49 | 1016.1 |
| 20260510205518 | 65 | 70 | 1.0 | 4.0 | 0.00 | 0.05 | 0.05 | 49 | 1016.0 |
| 20260510204519 | 64 | 81 | 2.0 | 6.0 | 0.00 | 0.05 | 0.05 | 49 | 1015.8 |
| 20260510203519 | 65 | 76 | 1.0 | 5.0 | 0.00 | 0.05 | 0.05 | 48 | 1016.1 |
| 20260510202539 | 65 | 15 | 1.0 | 3.0 | 0.00 | 0.05 | 0.05 | 49 | 1016.1 |
| 20260510201519 | 66 | 57 | 1.0 | 4.0 | 0.00 | 0.05 | 0.05 | 49 | 1016.2 |
| 20260510200519 | 68 | 53 | 1.0 | 2.0 | 0.00 | 0.05 | 0.05 | 46 | 1016.3 |
| 20260510195517 | 68 | 280 | 1.0 | 3.0 | 0.00 | 0.05 | 0.05 | 45 | 1016.1 |
| 20260510194520 | 67 | 66 | 1.0 | 4.0 | 0.00 | 0.05 | 0.05 | 47 | 1016.1 |
| 20260510193520 | 68 | 48 | 1.0 | 3.0 | 0.00 | 0.05 | 0.05 | 47 | 1016.1 |
| 20260510192517 | 67 | 340 | 1.0 | 3.0 | 0.00 | 0.05 | 0.05 | 45 | 1016.2 |
| 20260510191517 | 67 | 327 | 1.0 | 3.0 | 0.00 | 0.05 | 0.05 | 47 | 1016.3 |
| 20260510190517 | 67 | 23 | 1.0 | 4.0 | 0.00 | 0.05 | 0.05 | 46 | 1016.2 |
| 20260510185543 | 67 | 16 | 2.0 | 4.0 | 0.00 | 0.05 | 0.05 | 46 | 1016.0 |
| 20260510184517 | 67 | 315 | 1.0 | 4.0 | 0.00 | 0.05 | 0.05 | 48 | 1016.0 |
| 20260510183517 | 67 | 318 | 1.0 | 3.0 | 0.00 | 0.05 | 0.05 | 47 | 1016.1 |
| 20260510182538 | 68 | 50 | 1.0 | 4.0 | 0.00 | 0.05 | 0.05 | 48 | 1015.9 |
| 20260510181518 | 67 | 64 | 1.0 | 4.0 | 0.00 | 0.05 | 0.05 | 47 | 1015.9 |
| 20260510180518 | 67 | 47 | 1.0 | 4.0 | 0.00 | 0.05 | 0.05 | 49 | 1015.9 |
| 20260510175521 | 66 | 27 | 1.0 | 4.0 | 0.00 | 0.05 | 0.05 | 49 | 1015.9 |
| 20260510174538 | 66 | 40 | 2.0 | 6.0 | 0.00 | 0.05 | 0.05 | 48 | 1015.6 |
| 20260510173518 | 66 | 341 | 1.0 | 3.0 | 0.00 | 0.05 | 0.05 | 50 | 1015.5 |
| 20260510172519 | 66 | 12 | 1.0 | 4.0 | 0.00 | 0.05 | 0.05 | 48 | 1015.6 |
| 20260510171518 | 65 | 53 | 1.0 | 3.0 | 0.00 | 0.05 | 0.05 | 50 | 1015.6 |
| 20260510170518 | 64 | 48 | 2.0 | 6.0 | 0.00 | 0.05 | 0.05 | 49 | 1015.6 |
| 20260510165518 | 65 | 62 | 2.0 | 6.0 | 0.00 | 0.05 | 0.05 | 48 | 1015.7 |
| 20260510164539 | 65 | 56 | 1.0 | 4.0 | 0.00 | 0.05 | 0.05 | 47 | 1015.7 |
| 20260510163518 | 63 | 36 | 2.0 | 9.0 | 0.00 | 0.05 | 0.05 | 49 | 1015.8 |
| 20260510162519 | 64 | 92 | 2.0 | 6.0 | 0.00 | 0.05 | 0.05 | 48 | 1015.7 |
| 20260510161519 | 63 | 45 | 2.0 | 4.0 | 0.00 | 0.05 | 0.05 | 50 | 1015.7 |
| 20260510160539 | 64 | 83 | 3.0 | 8.0 | 0.00 | 0.05 | 0.05 | 46 | 1015.7 |
| 20260510155520 | 63 | 69 | 1.0 | 5.0 | 0.00 | 0.05 | 0.05 | 48 | 1015.6 |
| 20260510154516 | 63 | 73 | 2.0 | 5.0 | 0.00 | 0.05 | 0.05 | 49 | 1015.5 |
| 20260510153517 | 63 | 76 | 1.0 | 4.0 | 0.00 | 0.05 | 0.05 | 52 | 1015.6 |
| 20260510152520 | 63 | 17 | 1.0 | 5.0 | 0.00 | 0.05 | 0.05 | 53 | 1015.2 |
| 20260510151540 | 62 | 357 | 1.0 | 5.0 | 0.00 | 0.05 | 0.05 | 54 | 1015.0 |
| 20260510150519 | 61 | 57 | 1.0 | 3.0 | 0.00 | 0.05 | 0.05 | 55 | 1014.9 |
| 20260510145516 | 61 | 41 | 2.0 | 4.0 | 0.00 | 0.05 | 0.05 | 54 | 1014.7 |
| 20260510144517 | 61 | 341 | 1.0 | 4.0 | 0.00 | 0.05 | 0.05 | 55 | 1014.5 |
| 20260510143537 | 60 | 107 | 2.0 | 5.0 | 0.00 | 0.05 | 0.05 | 57 | 1014.3 |
| 20260510142520 | 59 | 99 | 1.0 | 3.0 | 0.00 | 0.05 | 0.05 | 56 | 1014.6 |
| 20260510141517 | 59 | 114 | 2.0 | 4.0 | 0.00 | 0.05 | 0.05 | 56 | 1014.4 |
| 20260510140517 | 58 | 81 | 1.0 | 5.0 | 0.00 | 0.05 | 0.05 | 56 | 1014.5 |
| 20260510135518 | 58 | 93 | 2.0 | 6.0 | 0.00 | 0.05 | 0.05 | 59 | 1014.4 |
| 20260510134518 | 57 | 101 | 2.0 | 4.0 | 0.00 | 0.05 | 0.05 | 57 | 1014.3 |
| 20260510133518 | 57 | 63 | 1.0 | 4.0 | 0.00 | 0.05 | 0.05 | 60 | 1014.4 |
| 20260510132540 | 56 | 221 | 1.0 | 1.0 | 0.00 | 0.05 | 0.05 | 64 | 1014.3 |
| 20260510131518 | 56 | 95 | 2.0 | 4.0 | 0.00 | 0.05 | 0.05 | 63 | 1014.0 |
| 20260510130518 | 56 | 72 | 1.0 | 3.0 | 0.00 | 0.05 | 0.05 | 66 | 1014.0 |
| 20260510125538 | 55 | 76 | 1.0 | 4.0 | 0.00 | 0.05 | 0.05 | 68 | 1014.0 |
| 20260510124518 | 55 | 21 | 1.0 | 2.0 | 0.00 | 0.05 | 0.05 | 70 | 1014.0 |
| 20260510123519 | 55 | 223 | 1.0 | 2.0 | 0.00 | 0.05 | 0.05 | 72 | 1013.7 |
| 20260510122519 | 55 | 242 | 0.0 | 2.0 | 0.00 | 0.05 | 0.05 | 72 | 1013.4 |
| 20260510121518 | 55 | 8 | 0.0 | 1.0 | 0.00 | 0.05 | 0.05 | 72 | 1013.3 |
| 20260510120519 | 54 | 56 | 0.0 | 3.0 | 0.00 | 0.07 | 0.05 | 71 | 1013.3 |
| 20260510115539 | 54 | 69 | 0.0 | 1.0 | 0.00 | 0.09 | 0.05 | 71 | 1013.2 |
| 20260510114519 | 55 | 64 | 1.0 | 2.0 | 0.00 | 0.09 | 0.05 | 72 | 1013.2 |
| 20260510113539 | 55 | 356 | 1.0 | 3.0 | 0.00 | 0.10 | 0.05 | 71 | 1013.0 |
| 20260510112519 | 55 | 104 | 1.0 | 3.0 | 0.00 | 0.10 | 0.05 | 73 | 1012.8 |
| 20260510111519 | 55 | 53 | 0.0 | 1.0 | 0.00 | 0.10 | 0.05 | 73 | 1012.8 |
| 20260510110519 | 55 | 108 | 1.0 | 2.0 | 0.00 | 0.10 | 0.05 | 72 | 1012.6 |
| 20260510105520 | 56 | 189 | 0.0 | 2.0 | 0.00 | 0.10 | 0.05 | 71 | 1012.2 |
| 20260510104517 | 56 | 9 | 1.0 | 2.0 | 0.00 | 0.10 | 0.05 | 71 | 1012.3 |
| 20260510103517 | 56 | 291 | 0.0 | 2.0 | 0.00 | 0.11 | 0.05 | 70 | 1012.1 |
| 20260510102519 | 56 | 93 | 1.0 | 2.0 | 0.00 | 0.11 | 0.05 | 69 | 1011.6 |
| 20260510101552 | 56 | 36 | 1.0 | 4.0 | 0.00 | 0.12 | 0.05 | 69 | 1011.7 |
| 20260510100517 | 57 | 359 | 1.0 | 3.0 | 0.00 | 0.13 | 0.05 | 71 | 1011.4 |
| 20260510095516 | 57 | 351 | 1.0 | 3.0 | 0.00 | 0.18 | 0.05 | 72 | 1011.2 |
| 20260510094517 | 57 | 298 | 1.0 | 2.0 | 0.00 | 0.22 | 0.05 | 73 | 1011.2 |
| 20260510093517 | 57 | 334 | 1.0 | 3.0 | 0.00 | 0.27 | 0.05 | 73 | 1011.1 |
| 20260510092540 | 57 | 13 | 1.0 | 2.0 | 0.00 | 0.30 | 0.05 | 73 | 1011.1 |
| 20260510091520 | 57 | 337 | 1.0 | 3.0 | 0.00 | 0.31 | 0.05 | 73 | 1010.7 |
| 20260510090518 | 58 | 48 | 1.0 | 2.0 | 0.00 | 0.34 | 0.05 | 73 | 1010.6 |
| 20260510085517 | 58 | 212 | 1.0 | 2.0 | 0.00 | 0.34 | 0.05 | 73 | 1010.3 |
| 20260510084518 | 58 | 71 | 1.0 | 3.0 | 0.00 | 0.34 | 0.05 | 73 | 1010.1 |
| 20260510083518 | 59 | 340 | 1.0 | 4.0 | 0.00 | 0.34 | 0.05 | 75 | 1009.8 |
| 20260510082538 | 59 | 337 | 1.0 | 5.0 | 0.00 | 0.34 | 0.05 | 77 | 1009.5 |
| 20260510081518 | 58 | 256 | 0.0 | 1.0 | 0.00 | 0.34 | 0.05 | 80 | 1009.5 |
| 20260510080518 | 58 | 270 | 1.0 | 2.0 | 0.00 | 0.35 | 0.05 | 81 | 1009.4 |
| 20260510075539 | 58 | 284 | 1.0 | 2.0 | 0.00 | 0.37 | 0.05 | 82 | 1009.1 |
| 20260510074521 | 58 | 243 | 1.0 | 2.0 | 0.00 | 0.40 | 0.05 | 81 | 1009.3 |
| 20260510073519 | 59 | 228 | 0.0 | 2.0 | 0.00 | 0.43 | 0.05 | 80 | 1009.4 |
| 20260510072518 | 60 | 282 | 1.0 | 2.0 | 0.00 | 0.46 | 0.05 | 78 | 1009.5 |
| 20260510071519 | 60 | 256 | 1.0 | 4.0 | 0.00 | 0.51 | 0.05 | 76 | 1009.5 |
| 20260510070519 | 60 | 253 | 2.0 | 5.0 | 0.00 | 0.55 | 0.05 | 75 | 1009.4 |
| 20260510065519 | 60 | 243 | 1.0 | 2.0 | 0.00 | 0.59 | 0.05 | 74 | 1009.2 |
| 20260510064520 | 61 | 237 | 1.0 | 4.0 | 0.01 | 0.61 | 0.05 | 73 | 1009.2 |
| 20260510063519 | 61 | 202 | 1.0 | 4.0 | 0.03 | 0.62 | 0.05 | 73 | 1009.4 |
| 20260510062519 | 61 | 181 | 1.0 | 2.0 | 0.05 | 0.66 | 0.05 | 72 | 1009.3 |
| 20260510061519 | 61 | 218 | 1.0 | 3.0 | 0.05 | 0.69 | 0.05 | 74 | 1009.3 |
| 20260510060520 | 62 | 237 | 1.0 | 3.0 | 0.05 | 0.71 | 0.05 | 74 | 1009.3 |
| 20260510055517 | 62 | 193 | 1.0 | 4.0 | 0.05 | 0.73 | 0.05 | 76 | 1009.4 |
| 20260510054520 | 63 | 242 | 2.0 | 7.0 | 0.04 | 0.73 | 0.04 | 77 | 1009.7 |
| 20260510053520 | 63 | 237 | 2.0 | 5.0 | 0.02 | 0.72 | 0.02 | 76 | 1009.8 |
| 20260510052520 | 63 | 233 | 2.0 | 7.0 | 0.00 | 0.70 | 0.00 | 71 | 1009.5 |
| 20260510051520 | 63 | 202 | 2.0 | 5.0 | 0.00 | 0.70 | 0.00 | 71 | 1009.3 |
| 20260510050517 | 63 | 196 | 1.0 | 3.0 | 0.00 | 0.70 | 0.00 | 71 | 1009.1 |
| 20260510045517 | 63 | 215 | 1.0 | 3.0 | 0.00 | 0.70 | 0.00 | 71 | 1008.9 |
| 20260510044520 | 63 | 194 | 1.0 | 5.0 | 0.00 | 0.70 | 0.00 | 71 | 1008.8 |
| 20260510043518 | 63 | 218 | 1.0 | 3.0 | 0.00 | 0.71 | 0.00 | 71 | 1008.7 |
| 20260510042518 | 63 | 188 | 1.0 | 4.0 | 0.00 | 0.74 | 0.00 | 71 | 1008.5 |
| 20260510041518 | 62 | 206 | 1.0 | 4.0 | 0.00 | 0.76 | 0.00 | 71 | 1008.4 |
| 20260510040518 | 62 | 186 | 1.0 | 4.0 | 0.00 | 0.76 | 0.00 | 73 | 1008.5 |
| 20260510035522 | 62 | 193 | 1.0 | 3.0 | 0.00 | 0.76 | 0.76 | 72 | 1008.4 |
| 20260510034518 | 63 | 220 | 1.0 | 3.0 | 0.00 | 0.76 | 0.76 | 72 | 1008.4 |
| 20260510033538 | 63 | 183 | 1.0 | 3.0 | 0.00 | 0.77 | 0.76 | 71 | 1008.4 |
| 20260510032518 | 63 | 189 | 1.0 | 3.0 | 0.00 | 0.77 | 0.76 | 71 | 1008.3 |
| 20260510031538 | 63 | 210 | 1.0 | 3.0 | 0.00 | 0.77 | 0.76 | 71 | 1008.2 |
| 20260510030539 | 63 | 204 | 1.0 | 3.0 | 0.00 | 0.77 | 0.76 | 71 | 1008.1 |
| 20260510025559 | 63 | 197 | 1.0 | 2.0 | 0.00 | 0.77 | 0.76 | 71 | 1008.2 |
| 20260510024519 | 64 | 205 | 1.0 | 3.0 | 0.00 | 0.77 | 0.76 | 70 | 1008.2 |
| 20260510023519 | 64 | 190 | 1.0 | 4.0 | 0.00 | 0.77 | 0.76 | 69 | 1008.2 |
| 20260510022519 | 64 | 204 | 1.0 | 3.0 | 0.00 | 0.77 | 0.76 | 69 | 1008.0 |
| 20260510021516 | 65 | 184 | 1.0 | 4.0 | 0.00 | 0.77 | 0.76 | 68 | 1007.9 |
| 20260510020540 | 65 | 196 | 1.0 | 4.0 | 0.00 | 0.77 | 0.76 | 68 | 1007.8 |
| 20260510015520 | 65 | 197 | 1.0 | 4.0 | 0.00 | 0.77 | 0.76 | 68 | 1007.6 |
| 20260510014519 | 65 | 189 | 1.0 | 2.0 | 0.00 | 0.77 | 0.76 | 68 | 1007.5 |
| 20260510013520 | 65 | 228 | 1.0 | 3.0 | 0.00 | 0.77 | 0.76 | 68 | 1007.3 |
| 20260510012517 | 66 | 198 | 1.0 | 3.0 | 0.00 | 0.77 | 0.76 | 67 | 1007.3 |
| 20260510011540 | 66 | 216 | 1.0 | 3.0 | 0.00 | 0.77 | 0.76 | 65 | 1007.2 |
| 20260510010520 | 67 | 174 | 1.0 | 2.0 | 0.00 | 0.77 | 0.76 | 64 | 1007.0 |
| 20260510005520 | 67 | 188 | 1.0 | 2.0 | 0.00 | 0.78 | 0.76 | 63 | 1007.0 |
| 20260510004520 | 68 | 180 | 1.0 | 2.0 | 0.00 | 0.79 | 0.76 | 62 | 1006.9 |
| 20260510003518 | 69 | 230 | 1.0 | 3.0 | 0.00 | 0.80 | 0.76 | 60 | 1006.8 |
| 20260510002518 | 69 | 187 | 1.0 | 4.0 | 0.00 | 0.81 | 0.76 | 59 | 1006.7 |
| 20260510001518 | 69 | 207 | 2.0 | 5.0 | 0.00 | 0.81 | 0.76 | 58 | 1006.5 |
| 20260510000521 | 70 | 195 | 1.0 | 4.0 | 0.00 | 0.81 | 0.76 | 58 | 1006.4 |
| 20260509235518 | 70 | 203 | 2.0 | 5.0 | 0.00 | 0.83 | 0.76 | 56 | 1006.2 |
| 20260509234558 | 70 | 198 | 2.0 | 6.0 | 0.00 | 0.84 | 0.76 | 55 | 1006.2 |
| 20260509233539 | 71 | 199 | 2.0 | 8.0 | 0.00 | 0.84 | 0.76 | 55 | 1006.1 |
| 20260509232518 | 71 | 218 | 1.0 | 6.0 | 0.00 | 0.84 | 0.76 | 54 | 1006.2 |
| 20260509231518 | 71 | 211 | 2.0 | 5.0 | 0.00 | 0.85 | 0.76 | 54 | 1006.1 |
| 20260509230518 | 71 | 200 | 2.0 | 7.0 | 0.00 | 0.85 | 0.76 | 53 | 1006.0 |
| 20260509225519 | 72 | 217 | 2.0 | 8.0 | 0.00 | 0.85 | 0.76 | 53 | 1006.1 |
| 20260509224518 | 72 | 195 | 2.0 | 5.0 | 0.00 | 0.85 | 0.76 | 53 | 1006.0 |
| 20260509223519 | 72 | 232 | 1.0 | 4.0 | 0.00 | 0.85 | 0.76 | 54 | 1006.0 |
| 20260509222519 | 72 | 198 | 3.0 | 8.0 | 0.00 | 0.85 | 0.76 | 54 | 1005.9 |
| 20260509221516 | 72 | 191 | 2.0 | 6.0 | 0.00 | 0.85 | 0.76 | 55 | 1005.9 |
| 20260509220539 | 72 | 217 | 3.0 | 8.0 | 0.00 | 0.85 | 0.76 | 55 | 1005.9 |
| 20260509215519 | 73 | 192 | 2.0 | 6.0 | 0.00 | 0.85 | 0.76 | 55 | 1005.8 |
| 20260509214520 | 73 | 189 | 2.0 | 7.0 | 0.00 | 0.85 | 0.76 | 54 | 1005.9 |